{"data":{"norad_id":46916,"intl_designator":"2020-082A","name":"TIANTONG-1 2","alt_names":[],"object_type":"PAYLOAD","status":"ACTIVE","operator":null,"country":"PRC","launch_date":"2020-11-12","launch_site_code":"XICLF","launch_vehicle":null,"mission":null,"orbit_class":"UNKNOWN","rcs_meters":null,"size_class":null,"mass_kg":null,"dimensions":null,"purposes":["comms"],"wikipedia_slug":null,"has_3d_model":false,"image_url":null,"decayed_at":null,"tle_current":{"epoch":"2026-05-25T00:54:58.371840Z","epoch_age_seconds":78716,"freshness":"FRESH","line1":"1 46916U 20082A   26145.03817560 -.00000359  00000+0  00000+0 0  9992","line2":"2 46916   0.8208 324.4036 0001637  89.5014 327.4192  1.00269685 20425","mean_motion":1.00269685,"eccentricity":0.0001637,"inclination_deg":0.8208,"raan_deg":324.4036,"arg_perigee_deg":89.5014,"mean_anomaly_deg":327.4192,"bstar":0,"rev_number":2042,"period_min":1436.1269809514,"perigee_km":35780.281214703,"apogee_km":35794.086140692,"semimajor_km":42165.320677698,"source":"CELESTRAK","updated_at":"2026-05-25T13:38:14.097004Z"}}}